| time (UTC) | temp F | wind direction | speed MPH | gust MPH | rain 1hr in | rain 24hr in | rain mn in | humidity % | barometer mb |
| 20260506160118 | 63 | 227 | 3.0 | 10.0 | 0.00 | 0.00 | 0.00 | 69 | 1020.7 |
| 20260506154535 | 62 | 35 | 1.0 | 6.0 | 0.00 | 0.00 | 0.00 | 74 | 1020.9 |
| 20260506151535 | 58 | 139 | 1.0 | 4.0 | 0.00 | 0.00 | 0.00 | 81 | 1020.7 |
| 20260506150033 | 56 | 113 | 1.0 | 4.0 | 0.00 | 0.00 | 0.00 | 93 | 1020.9 |
| 20260506143035 | 52 | 157 | 0.0 | 1.0 | 0.00 | 0.00 | 0.00 | 98 | 1020.8 |
| 20260506141608 | 49 | 194 | 0.0 | 3.0 | 0.00 | 0.00 | 0.00 | 98 | 1020.6 |
| 20260506140037 | 46 | 161 | 2.0 | 3.0 | 0.00 | 0.00 | 0.00 | 97 | 1020.4 |
| 20260506134537 | 44 | 203 | 2.0 | 4.0 | 0.00 | 0.00 | 0.00 | 97 | 1020.2 |
| 20260506131537 | 42 | 175 | 3.0 | 4.0 | 0.00 | 0.00 | 0.00 | 97 | 1019.8 |
| 20260506130033 | 41 | 165 | 1.0 | 3.0 | 0.00 | 0.00 | 0.00 | 97 | 1019.7 |
| 20260506124537 | 42 | 169 | 2.0 | 4.0 | 0.00 | 0.00 | 0.00 | 97 | 1019.5 |
| 20260506123030 | 42 | 180 | 3.0 | 5.0 | 0.00 | 0.00 | 0.00 | 96 | 1019.4 |
| 20260506114534 | 43 | 159 | 2.0 | 3.0 | 0.00 | 0.00 | 0.00 | 96 | 1019.1 |
| 20260506113034 | 43 | 160 | 3.0 | 5.0 | 0.00 | 0.00 | 0.00 | 96 | 1019.0 |
| 20260506111535 | 44 | 179 | 3.0 | 4.0 | 0.00 | 0.00 | 0.00 | 96 | 1019.0 |
| 20260506110034 | 44 | 162 | 3.0 | 5.0 | 0.00 | 0.00 | 0.00 | 96 | 1018.8 |
| 20260506103036 | 44 | 153 | 3.0 | 5.0 | 0.00 | 0.00 | 0.00 | 96 | 1018.4 |
| 20260506101534 | 44 | 173 | 4.0 | 5.0 | 0.00 | 0.00 | 0.00 | 96 | 1018.4 |
| 20260506100055 | 44 | 160 | 3.0 | 4.0 | 0.00 | 0.00 | 0.00 | 96 | 1018.4 |
| 20260506094535 | 44 | 152 | 3.0 | 4.0 | 0.00 | 0.00 | 0.00 | 95 | 1018.3 |
| 20260506093036 | 44 | 169 | 3.0 | 4.0 | 0.00 | 0.00 | 0.00 | 95 | 1018.3 |
| 20260506090107 | 45 | 165 | 3.0 | 4.0 | 0.00 | 0.00 | 0.00 | 95 | 1018.2 |
| 20260506084536 | 45 | 157 | 3.0 | 4.0 | 0.00 | 0.00 | 0.00 | 95 | 1018.1 |
| 20260506083035 | 46 | 160 | 3.0 | 4.0 | 0.00 | 0.00 | 0.00 | 95 | 1018.0 |
| 20260506081535 | 46 | 169 | 3.0 | 4.0 | 0.00 | 0.00 | 0.00 | 95 | 1018.0 |
| 20260506073038 | 47 | 153 | 2.0 | 4.0 | 0.00 | 0.00 | 0.00 | 94 | 1017.7 |
| 20260506071536 | 47 | 160 | 2.0 | 3.0 | 0.00 | 0.00 | 0.00 | 93 | 1017.6 |
| 20260506061533 | 49 | 160 | 3.0 | 5.0 | 0.00 | 0.00 | 0.00 | 92 | 1017.4 |
| 20260506040107 | 56 | 140 | 3.0 | 5.0 | 0.00 | 0.00 | 0.00 | 80 | 1016.4 |
| 20260506034610 | 58 | 157 | 3.0 | 4.0 | 0.00 | 0.00 | 0.00 | 75 | 1016.0 |
| 20260506033035 | 61 | 140 | 2.0 | 4.0 | 0.00 | 0.00 | 0.00 | 69 | 1015.9 |
| 20260506031535 | 63 | 122 | 2.0 | 4.0 | 0.00 | 0.00 | 0.00 | 66 | 1015.7 |
| 20260506030108 | 65 | 128 | 2.0 | 4.0 | 0.00 | 0.00 | 0.00 | 62 | 1015.5 |
| 20260506024651 | 67 | 148 | 2.0 | 6.0 | 0.00 | 0.00 | 0.00 | 59 | 1015.4 |
| 20260506023034 | 69 | 39 | 5.0 | 11.0 | 0.00 | 0.00 | 0.00 | 56 | 1015.1 |
| 20260506021537 | 71 | 44 | 6.0 | 12.0 | 0.00 | 0.00 | 0.00 | 53 | 1015.0 |
| 20260506020036 | 73 | 35 | 5.0 | 9.0 | 0.00 | 0.00 | 0.00 | 48 | 1014.9 |
| 20260506014536 | 74 | 12 | 8.0 | 15.0 | 0.00 | 0.00 | 0.00 | 47 | 1014.7 |
| 20260506013037 | 75 | 360 | 6.0 | 13.0 | 0.00 | 0.00 | 0.00 | 46 | 1014.7 |
| 20260506011535 | 75 | 273 | 2.0 | 6.0 | 0.00 | 0.00 | 0.00 | 45 | 1014.6 |
| 20260506010142 | 76 | 277 | 3.0 | 7.0 | 0.00 | 0.00 | 0.00 | 46 | 1014.6 |
| 20260506000036 | 76 | 263 | 4.0 | 10.0 | 0.00 | 0.00 | 0.00 | 51 | 1014.7 |
| 20260505234535 | 75 | 33 | 3.0 | 8.0 | 0.00 | 0.00 | 0.00 | 53 | 1014.9 |
| 20260505233153 | 74 | 71 | 6.0 | 14.0 | 0.00 | 0.00 | 0.00 | 53 | 1014.9 |
| 20260505231536 | 74 | 85 | 6.0 | 12.0 | 0.00 | 0.00 | 0.00 | 53 | 1014.9 |
| 20260505230037 | 74 | 83 | 7.0 | 13.0 | 0.00 | 0.00 | 0.00 | 53 | 1015.0 |
| 20260505224537 | 74 | 70 | 7.0 | 12.0 | 0.00 | 0.00 | 0.00 | 53 | 1015.1 |
| 20260505223143 | 74 | 66 | 8.0 | 12.0 | 0.00 | 0.00 | 0.00 | 53 | 1015.2 |
| 20260505221537 | 74 | 78 | 8.0 | 13.0 | 0.00 | 0.00 | 0.00 | 51 | 1015.3 |
| 20260505220035 | 76 | 60 | 6.0 | 12.0 | 0.00 | 0.00 | 0.00 | 48 | 1015.4 |
| 20260505214609 | 76 | 32 | 5.0 | 15.0 | 0.00 | 0.00 | 0.00 | 49 | 1015.5 |
| 20260505213034 | 75 | 14 | 5.0 | 14.0 | 0.00 | 0.00 | 0.00 | 50 | 1015.6 |
| 20260505211537 | 74 | 56 | 6.0 | 13.0 | 0.00 | 0.00 | 0.00 | 52 | 1015.6 |
| 20260505210035 | 73 | 56 | 7.0 | 12.0 | 0.00 | 0.00 | 0.00 | 52 | 1015.7 |
| 20260505204607 | 74 | 70 | 6.0 | 15.0 | 0.00 | 0.00 | 0.00 | 50 | 1015.9 |
| 20260505201534 | 74 | 34 | 6.0 | 12.0 | 0.00 | 0.00 | 0.00 | 50 | 1016.0 |
| 20260505200108 | 74 | 45 | 4.0 | 13.0 | 0.00 | 0.00 | 0.00 | 49 | 1016.0 |
| 20260505194535 | 73 | 33 | 5.0 | 11.0 | 0.00 | 0.00 | 0.00 | 50 | 1016.1 |
| 20260505193034 | 72 | 58 | 4.0 | 8.0 | 0.00 | 0.00 | 0.00 | 52 | 1016.2 |
| 20260505191536 | 72 | 70 | 5.0 | 11.0 | 0.00 | 0.00 | 0.00 | 51 | 1016.3 |
| 20260505190031 | 72 | 14 | 4.0 | 9.0 | 0.00 | 0.00 | 0.00 | 51 | 1016.4 |
| 20260505184534 | 72 | 36 | 4.0 | 8.0 | 0.00 | 0.00 | 0.00 | 52 | 1016.4 |
| 20260505183106 | 72 | 44 | 4.0 | 10.0 | 0.00 | 0.00 | 0.00 | 52 | 1016.4 |
| 20260505181536 | 71 | 46 | 4.0 | 8.0 | 0.00 | 0.00 | 0.00 | 52 | 1016.4 |
| 20260505180035 | 70 | 17 | 3.0 | 7.0 | 0.00 | 0.00 | 0.00 | 53 | 1016.4 |
| 20260505174535 | 70 | 99 | 3.0 | 8.0 | 0.00 | 0.00 | 0.00 | 54 | 1016.4 |
| 20260505173110 | 69 | 63 | 3.0 | 7.0 | 0.00 | 0.00 | 0.00 | 55 | 1016.3 |
| 20260505171534 | 68 | 52 | 4.0 | 7.0 | 0.00 | 0.00 | 0.00 | 56 | 1016.3 |
| 20260505170047 | 68 | 111 | 2.0 | 6.0 | 0.00 | 0.00 | 0.00 | 55 | 1016.3 |
| 20260505163036 | 66 | 66 | 2.0 | 6.0 | 0.00 | 0.00 | 0.00 | 60 | 1016.2 |
| 20260505161609 | 65 | 76 | 2.0 | 6.0 | 0.00 | 0.00 | 0.00 | 62 | 1016.2 |